www.dot.il.gov - /desenv/hwystds/rev210/Web DGNs/


[To Parent Directory]

Monday, October 06, 2008 9:48 AM 27149824 1_Rev210_AllHighwayStandards_DGN.exe
Wednesday, September 17, 2008 12:45 PM 439808 1_Rev210_Div000_DGN.exe
Wednesday, September 17, 2008 12:46 PM 481280 1_Rev210_Div200_DGN.exe
Wednesday, September 17, 2008 12:49 PM 148480 1_Rev210_Div300_DGN.exe
Wednesday, September 17, 2008 12:51 PM 4796928 1_Rev210_Div400_DGN.exe
Tuesday, September 16, 2008 9:22 AM 4066304 1_Rev210_Div500_DGN.exe
Monday, October 06, 2008 9:45 AM 9739776 1_Rev210_Div600_DGN.exe
Friday, October 03, 2008 11:11 AM 3771392 1_Rev210_Div700_DGN.exe
Monday, September 15, 2008 2:51 PM 2211328 1_Rev210_Div800_DGN.exe
Monday, September 15, 2008 2:52 PM 1804800 1_Rev210_DivBLR_DGN.exe
Wednesday, September 17, 2008 10:52 AM 368128 210-000001-05_StandardSymbolsAbbreviations&Patterns.dgn
Wednesday, September 17, 2008 10:53 AM 63488 210-001001-02_AreasOfReinfRebars.dgn
Wednesday, September 17, 2008 10:54 AM 67072 210-001006_DecimalOfInch&Foot.dgn
Wednesday, September 17, 2008 10:54 AM 69632 210-202001-01_EarthMedDitchCheck.dgn
Wednesday, September 17, 2008 10:55 AM 363008 210-280001-04_TempErosionCntrlSystems.dgn
Wednesday, September 17, 2008 10:55 AM 112128 210-285001-02_FabricFormedConcRevetmentMats.dgn
Wednesday, September 17, 2008 10:56 AM 140800 210-353001-04_PCCBseCseWithHMABind&SurfCses.dgn
Wednesday, September 17, 2008 10:57 AM 143872 210-406001-05_EntrRampTermFlexPvmt.dgn
Wednesday, September 17, 2008 10:58 AM 275968 210-406101-04_ExitRampTerminalFlexiblePvmt.dgn
Wednesday, September 17, 2008 10:58 AM 114688 210-406201-01_MailboxTurnout.dgn
Wednesday, September 17, 2008 11:00 AM 243712 210-420001-07_PavementJoints.dgn
Wednesday, September 17, 2008 11:00 AM 86528 210-420101-04_24ftJointedPCCPvmt.dgn
Wednesday, September 17, 2008 11:00 AM 120320 210-420106-04_36ftJointedPCCPvmt.dgn
Wednesday, September 17, 2008 11:01 AM 117760 210-420111-02_PCCPvmtRoundouts.dgn
Wednesday, September 17, 2008 11:02 AM 235520 210-420201-07_EntrRampTerm-PCCAdjToPCC.dgn
Wednesday, September 17, 2008 11:02 AM 241664 210-420206-08_EntrRampTerm-PCCAdjToCRC.dgn
Wednesday, September 17, 2008 11:03 AM 297472 210-420301-04_ExitRampTerm-PCCAdjToPCC.dgn
Wednesday, September 17, 2008 11:05 AM 304640 210-420306-06_ExitRampTerm-PCCAdjToCRC.dgn
Wednesday, September 17, 2008 11:05 AM 325120 210-420401-07_BridgeApproachPvmt.dgn
Wednesday, September 17, 2008 11:06 AM 115200 210-420501-04_PCCPvmt&PCCBseCseAdjToRRGradeXing.dgn
Wednesday, September 17, 2008 11:06 AM 96768 210-420601-05_24ftPCCPvmt.dgn
Wednesday, September 17, 2008 11:06 AM 86016 210-420701-02_PavementFabric.dgn
Wednesday, September 17, 2008 11:07 AM 75776 210-421001-02_BarReinfForCRCPvmt.dgn
Wednesday, September 17, 2008 11:08 AM 357376 210-421101-07_24ftCRCPvmt-wWideFlangeBeamTermJt.dgn
Wednesday, September 17, 2008 11:08 AM 349184 210-421106-07_36ftCRCPvmt-wWideFlangeBeamTermJt.dgn
Wednesday, September 17, 2008 11:09 AM 347136 210-421201-06_24ftCRCPvmt-wLugSys.dgn
Wednesday, September 17, 2008 11:10 AM 364032 210-421206-06_36ftCRCPvmt-wLugSys.dgn
Wednesday, September 17, 2008 11:11 AM 236032 210-424001-05_CurbRampsForSidewalk.dgn
Wednesday, September 17, 2008 11:16 AM 154624 210-442001-04_ClassAPatches.dgn
Wednesday, September 17, 2008 11:16 AM 309760 210-442101-07_ClassBPatches.dgn
Wednesday, September 17, 2008 11:17 AM 188928 210-442201-03_ClassC&DPatches.dgn
Wednesday, September 17, 2008 11:17 AM 126464 210-482001-02_HMAShldAdjToFlexPvmt.dgn
Wednesday, September 17, 2008 11:18 AM 72704 210-482006-03_HMAShldAdjToRigidPvmt.dgn
Wednesday, September 17, 2008 11:18 AM 158720 210-482011-03_HMAShldStrips(Shlds)wResurfOrWiden&ResurfProj.dgn
Wednesday, September 17, 2008 11:18 AM 145408 210-483001-04_PCCShld.dgn
Wednesday, September 17, 2008 11:19 AM 202240 210-509001-01_TubularThrieBeamRetrofitRailForBridge.dgn
Wednesday, September 10, 2008 9:17 AM 98304 210-515001-03_NamePlateForBridges.dgn
Wednesday, September 10, 2008 9:18 AM 75776 210-542001-02_ReinfConcEndSect-wParallelWngwalls12-48inDiaRtAngle.dgn
Wednesday, September 10, 2008 9:19 AM 91136 210-542101-02_ReinfConcEndSectForPipeCulv15-36inDiaRtAngle.dgn
Wednesday, September 10, 2008 9:23 AM 126976 210-542106-02_ReinfConcEndSectForPipeCulv42-60inDiaRtAngle.dgn
Wednesday, September 10, 2008 9:24 AM 138240 210-542111-02_ReinfConcEndSectForPipeCulv66-84inDiaRtAngle.dgn
Wednesday, September 10, 2008 9:26 AM 148992 210-542116-02_ReinfConcEndSectForMultPipeCulv15-36inDiaRtAngle.dgn
Wednesday, September 10, 2008 9:42 AM 161280 210-542121-02_ReinfConcEndSectForMultPipeCulv42-60inDiaRtAngle.dgn
Wednesday, September 10, 2008 9:53 AM 321024 210-542201-02_ReinfConcEndSectForPipeCulv15-36inDiaSkewed.dgn
Wednesday, September 10, 2008 9:55 AM 201728 210-542206-01_ReinfConcEndSectForPipeCulv42-60inDiaSkewed.dgn
Wednesday, September 10, 2008 9:56 AM 82944 210-542301-02_PrecastReinfConcFlaredEndSect.dgn
Wednesday, September 10, 2008 9:57 AM 82432 210-542306-02_PrecastReinfConcEllipticalFlaredEndSect.dgn
Wednesday, September 10, 2008 10:33 AM 229376 210-542311-01_GratingForConcFlaredEndSection24-54inPipe.dgn
Wednesday, September 10, 2008 10:34 AM 84992 210-542401-01_MetalEndSectForPipeCulv.dgn
Wednesday, September 10, 2008 10:34 AM 85504 210-542406-01_MetalEndSectForPipeArch.dgn
Wednesday, September 10, 2008 10:35 AM 196608 210-542501-02_InletBoxTypeA24in.dgn
Wednesday, September 10, 2008 10:36 AM 235520 210-542506-02_InletBoxTypeB24in.dgn
Wednesday, September 10, 2008 10:37 AM 230400 210-542511-02_InletBoxTypeC24in.dgn
Wednesday, September 10, 2008 10:37 AM 256512 210-542516-02_InletBoxTypeD24in.dgn
Wednesday, September 10, 2008 10:38 AM 261120 210-542521-02_InletBoxTypeE24in.dgn
Wednesday, September 10, 2008 10:50 AM 263168 210-542526-02_InletBoxTypeF24in.dgn
Monday, September 15, 2008 3:57 PM 245760 210-542531-03_InletBoxTypeG24in.dgn
Wednesday, September 10, 2008 10:53 AM 306176 210-542536-02_InletBoxTypeA36in.dgn
Wednesday, September 10, 2008 10:54 AM 291840 210-542541-02_InletBoxTypeA48in.dgn
Wednesday, September 10, 2008 10:54 AM 251392 210-542546-01_FlushInletBoxForMedian.dgn
Wednesday, September 10, 2008 10:55 AM 59392 210-542601-01_RCPipeElbow.dgn
Wednesday, September 10, 2008 10:55 AM 163840 210-542606-01_RCPipeTee.dgn
Wednesday, September 10, 2008 10:57 AM 218112 210-601001-03_SubSurfDrains.dgn
Wednesday, September 10, 2008 10:58 AM 70656 210-601101-01_ConcHdwForPipeDrain.dgn
Wednesday, September 10, 2008 10:59 AM 120320 210-602001-01_CatchBasin-TypeA.dgn
Wednesday, September 10, 2008 10:59 AM 168448 210-602006-02_CatchBasin-TypeB.dgn
Wednesday, September 10, 2008 11:01 AM 101888 210-602011-01_CatchBasin-TypeC.dgn
Wednesday, September 10, 2008 11:01 AM 157184 210-602016-01_CatchBasin-TypeD.dgn
Wednesday, September 10, 2008 11:02 AM 215040 210-602101-02_DrainStruc-Type1&2&3.dgn
Wednesday, September 10, 2008 11:03 AM 214528 210-602106-01_DrainStruc-Type4&5&6.dgn
Wednesday, September 10, 2008 11:04 AM 84992 210-602301-02_Inlet-TypeA.dgn
Wednesday, September 10, 2008 11:04 AM 136192 210-602306-02_Inlet-TypeB.dgn
Wednesday, September 10, 2008 11:05 AM 131072 210-602401-02_Manhole-TypeA.dgn
Wednesday, September 10, 2008 11:10 AM 113664 210-602406-03_Manhole-TypeA6ftDia.dgn
Wednesday, September 10, 2008 11:11 AM 138752 210-602411-01_Manhole-TypeA7ftDia.dgn
Wednesday, September 10, 2008 11:12 AM 139264 210-602416-01_Manhole-TypeA8ftDia.dgn
Wednesday, September 10, 2008 11:13 AM 139264 210-602421-01_Manhole-TypeA9ftDia.dgn
Wednesday, September 10, 2008 11:14 AM 115200 210-602501-01_ValveVault-TypeA.dgn
Wednesday, September 10, 2008 11:15 AM 92672 210-602601-02_PrecastReinfConcFlatSlabTop.dgn
Wednesday, September 10, 2008 11:16 AM 93184 210-602701-02_ManholeSteps.dgn
Wednesday, September 10, 2008 11:16 AM 86528 210-604001-03_Frame&Lids-Type1.dgn
Wednesday, September 10, 2008 11:17 AM 122880 210-604006-04_Frame&GrateType3.dgn
Wednesday, September 10, 2008 11:20 AM 134144 210-604011-04_Frame&GrateType3V.dgn
Wednesday, September 10, 2008 11:20 AM 79360 210-604016-02_Frame&GrateType4.dgn
Wednesday, September 10, 2008 11:21 AM 93696 210-604021-02_BaseFrame&LidsType5.dgn
Wednesday, September 10, 2008 11:23 AM 95744 210-604026-02_Frame&GrateType6.dgn
Wednesday, September 10, 2008 11:44 AM 68608 210-604031-02_GrateType7.dgn
Wednesday, September 10, 2008 11:56 AM 62976 210-604036-02_GrateType8.dgn
Wednesday, September 10, 2008 11:56 AM 84992 210-604041-02_Frame&GrateType9.dgn
Wednesday, September 10, 2008 1:18 PM 86528 210-604046-02_Frame&GrateType10.dgn
Wednesday, September 10, 2008 1:19 PM 130560 210-604051-03_Frame&GrateType11.dgn
Wednesday, September 10, 2008 1:20 PM 133120 210-604056-03_Frame&GrateType11V.dgn
Wednesday, September 10, 2008 1:21 PM 93184 210-604061-02_Frame&GrateType12.dgn
Wednesday, September 10, 2008 1:21 PM 119296 210-604066-02_Frame&LidType15.dgn
Wednesday, September 10, 2008 1:22 PM 100352 210-604071-04_Frame&GrateType20.dgn
Wednesday, September 10, 2008 1:22 PM 129024 210-604076-04_Frame&GrateType21.dgn
Wednesday, September 10, 2008 1:23 PM 157184 210-604081-04_Frame&GrateType22.dgn
Wednesday, September 10, 2008 1:23 PM 157696 210-604086-02_Frame&GrateType23.dgn
Wednesday, September 10, 2008 1:23 PM 147968 210-604091-02_Frame&GrateType24.dgn
Wednesday, September 10, 2008 1:24 PM 168448 210-604101-01_MedianInletFor24inRCPipe.dgn
Wednesday, September 10, 2008 1:24 PM 159744 210-604106-01_MedianInletFor36inRCPipe.dgn
Wednesday, September 10, 2008 1:25 PM 168960 210-606001-04_ConcCurbTypeB&ComboConcC&G.dgn
Wednesday, September 10, 2008 1:26 PM 244224 210-606006-02_OutletsForConcC&G-TypeB-6.24.dgn
Wednesday, September 10, 2008 1:27 PM 214528 210-606101-04_TypeAGut-InlOutl&Entr.dgn
Wednesday, September 10, 2008 1:27 PM 118784 210-606106-04_OutlType1ForTypeAGut.dgn
Wednesday, September 10, 2008 1:28 PM 140288 210-606111-03_OutlType2ForTypeAGut.dgn
Wednesday, September 10, 2008 1:29 PM 166912 210-606201-02_TypeBGut-InlOutl&Entr.dgn
Wednesday, September 10, 2008 1:29 PM 115712 210-606206-03_OutlType1ForTypeBGut.dgn
Wednesday, September 10, 2008 1:30 PM 138240 210-606211-03_OutlType2ForTypeBGut.dgn
Wednesday, September 10, 2008 1:31 PM 210432 210-606301-04_PCCIslands&Medians.dgn
Wednesday, September 10, 2008 1:31 PM 92160 210-606306-03_CorrugatedPCCMedians.dgn
Wednesday, September 10, 2008 1:32 PM 114176 210-606401-01_PavedDitch.dgn
Wednesday, September 10, 2008 1:33 PM 184832 210-609001-04_BridgeApproachShldPvmt&Drain.dgn
Wednesday, September 10, 2008 1:33 PM 201216 210-609006-04_BridgeApproachPvmt(DrainDetail).dgn
Wednesday, September 10, 2008 1:34 PM 254464 210-610001-04_ShldInletWithCurb.dgn
Wednesday, September 10, 2008 1:50 PM 221184 210-630001-08_SteelPlateBeamGrdrail.dgn
Wednesday, September 10, 2008 1:53 PM 139264 210-630101-08_GuardrailMountedOnExCulv.dgn
Wednesday, September 10, 2008 1:54 PM 96256 210-630201-06_PCC-BitStb@SteelPlateBeamGrdRail.dgn
Wednesday, September 10, 2008 1:55 PM 92672 210-630301-05_ShldWidenForType1GrdrailTerms.dgn
Wednesday, September 10, 2008 2:21 PM 125952 210-631006-06_TrafBarTermType1B.dgn
Wednesday, September 10, 2008 2:21 PM 110592 210-631011-05_TrafBarTermType2.dgn
Wednesday, September 10, 2008 2:22 PM 161280 210-631026-05_TrafBarTermType5.dgn
Wednesday, September 10, 2008 2:23 PM 234496 210-631031-07_TrafBarTermType6.dgn
Wednesday, September 10, 2008 2:24 PM 248832 210-631032-04_TrafBarTermType6A.dgn
Wednesday, September 10, 2008 2:25 PM 188416 210-631033-03_TrafBarTermType6B.dgn
Wednesday, September 10, 2008 2:26 PM 126464 210-631036-05_TrafBarTermType8.dgn
Wednesday, September 10, 2008 2:27 PM 112640 210-631041-02_TrafBarTermType9.dgn
Wednesday, September 10, 2008 2:27 PM 107008 210-631046-04_TrafBarTermType10.dgn
Wednesday, September 10, 2008 2:28 PM 105984 210-631051-02_TrafBarTermType11.dgn
Wednesday, September 10, 2008 2:29 PM 99840 210-631056-02_TrafBarTermType12.dgn
Wednesday, September 10, 2008 2:29 PM 157696 210-635001-01_Delineators.dgn
Wednesday, September 10, 2008 2:30 PM 85504 210-635006-03_Reflector&TermMrkrPlacemnt.dgn
Wednesday, September 10, 2008 2:31 PM 160768 210-635011-02_ReflectorMrkr&MountDetails.dgn
Monday, October 06, 2008 9:28 AM 251904 210-636001-02_CableRdGrd-SingleStrand.dgn
Wednesday, September 10, 2008 2:50 PM 140288 210-637001-04_ConcBarrierDblFace32in.dgn
Wednesday, September 10, 2008 2:51 PM 145408 210-637006-02_ConcBarrierDblFace42in.dgn
Wednesday, September 10, 2008 2:52 PM 85504 210-638001-02_GlareScreenBlades.dgn
Wednesday, September 10, 2008 2:53 PM 80896 210-638101-02_ConcGlareScreen.dgn
Wednesday, September 10, 2008 2:54 PM 140288 210-639001-02_Sightscrn-PrecstPrestressConcPanelWall.dgn
Wednesday, September 10, 2008 2:55 PM 208384 210-640001-01_Sightscrn-ChainLinkFence.dgn
Wednesday, September 10, 2008 2:56 PM 111616 210-641001-01_Sightscrn-CedarStckadeFenceTypeS.dgn
Wednesday, September 10, 2008 2:56 PM 94720 210-641006-01_Sightscrn-WoodPlankFenceTypeP.dgn
Wednesday, September 10, 2008 2:57 PM 130048 210-642001-01_ShldRumbleStrips.dgn
Wednesday, September 10, 2008 2:58 PM 402432 210-664001-02_ChainLinkFence.dgn
Wednesday, September 10, 2008 2:59 PM 398336 210-665001-02_WovenWireFence.dgn
Wednesday, September 10, 2008 3:00 PM 86528 210-666001-01_ROWMrkrs.dgn
Wednesday, September 10, 2008 3:00 PM 86528 210-667001-01_DrainageMrkrs.dgn
Wednesday, September 10, 2008 3:01 PM 126976 210-667101-01_PermanentSurveyMrkrs.dgn
Wednesday, September 10, 2008 3:01 PM 66048 210-668001-01_MethOfResetting-USGS&NGS-Benchmarks.dgn
Wednesday, September 10, 2008 3:33 PM 55808 210-701001-02_OffRdOp-2L2W-15ftMinFromEOP-45MPH+.dgn
Wednesday, September 10, 2008 3:33 PM 61440 210-701006-03_OffRdOp-2L2W-15ftToEOP-45MPH+.dgn
Wednesday, September 10, 2008 3:34 PM 64512 210-701011-02_OffRdMovingOp-2L2W-DayOnly-45MPH+.dgn
Wednesday, September 10, 2008 3:35 PM 62464 210-701101-02_OffRdOp-MultiLn-LessThan15ftToEOP.dgn
Wednesday, September 10, 2008 3:35 PM 56832 210-701106-02_OffRdOp-MultiLn-MoreThan15ftAway.dgn
Wednesday, September 10, 2008 3:36 PM 65536 210-701201-03_LnClosure2L2W-DayOnly.dgn
Wednesday, September 10, 2008 3:36 PM 64000 210-701206-02_LnClosure2L2W-NightOnly45MPH+.dgn
Wednesday, September 10, 2008 3:37 PM 65536 210-701301-03_LnClosure2L2W-ShortTimeOp.dgn
Wednesday, September 10, 2008 3:37 PM 65024 210-701306-02_LnClosure2L2W-SlowMoveOpDayOnly45MPH+.dgn
Wednesday, September 10, 2008 3:38 PM 71680 210-701311-03_LnClosure2L2W-MovingOpDayOnly.dgn
Wednesday, September 10, 2008 3:38 PM 256512 210-701316-04_LnClosure2L2W-BridgeRepair45MPH+.dgn
Wednesday, September 10, 2008 3:39 PM 196096 210-701321-10 LnClosure2L2W-BridgeRepair+Barrier.dgn
Wednesday, September 10, 2008 3:43 PM 72704 210-701326-03_LnClosure2L2W-PvmtWidening45MPH+.dgn
Wednesday, September 10, 2008 3:44 PM 88064 210-701331-03_LnClosure2L2W+RunAround45MPH+.dgn
Wednesday, September 10, 2008 3:44 PM 74240 210-701336-05_LnClosure2L2W-WorkAreasInSeries45MPH+.dgn
Wednesday, September 10, 2008 3:45 PM 72192 210-701400-03_ApprchToLnClosure-FrwayExpway.dgn
Wednesday, September 10, 2008 3:45 PM 84480 210-701401-05_LnClosureFrwayExpway.dgn
Wednesday, September 10, 2008 3:46 PM 109056 210-701402-07_LnClosureFrwayExpway+Barrier.dgn
Wednesday, September 10, 2008 3:47 PM 85504 210-701406-05_LnClosureFrwayExpway-DayOpOnly.dgn
Wednesday, September 10, 2008 3:54 PM 117248 210-701411-05_LnClosureMultiLn-EntrOrExitRamp45MPH+.dgn
Wednesday, September 10, 2008 3:55 PM 101888 210-701416-06_LnClosureFrwayExpway+Crossover&Barrier.dgn
Friday, October 03, 2008 11:07 AM 90112 210-701421-02_LnClosureMultiLn-DayOpOnly45-55MPH.dgn
Wednesday, September 10, 2008 3:55 PM 87040 210-701422-02_LnClosureMultiLn-45-55MPH.dgn
Wednesday, September 10, 2008 3:56 PM 141312 210-701423-03_LnClosureMultiln+Barrier45-55MPH.dgn
Wednesday, September 10, 2008 3:56 PM 81920 210-701426-03_LnClosureMultiLn-IntermittantOrMovingOp45MPH+.dgn
Wednesday, September 10, 2008 3:57 PM 99328 210-701431-05_LnClosureMultiLnUndivided+Crossover45-55MPH.dgn
Monday, September 15, 2008 3:57 PM 92160 210-701446-01_TwoLnClosure-FrwayExpway.dgn
Wednesday, September 10, 2008 3:58 PM 101888 210-701451_RampClosureFreewayExp.dgn
Wednesday, September 10, 2008 3:58 PM 86016 210-701456_PartialExitRampClosureFrewayExp.dgn
Wednesday, September 10, 2008 3:59 PM 76288 210-701501-05_UrbanLnClosure2L2W-Undivided.dgn
Wednesday, September 10, 2008 3:59 PM 111104 210-701502-03_UrbanLnClosure2L2W+BidirectLeftTurnLn.dgn
Wednesday, September 10, 2008 4:00 PM 108544 210-701601-06_UrbanLnClosureMultiLn1W2W+NontrvsableMed.dgn
Wednesday, September 10, 2008 4:01 PM 182784 210-701602-04_UrbanLnClosureMultiLn2W+BidirectLeftTurnLn.dgn
Wednesday, September 10, 2008 4:02 PM 122880 210-701606-06_UrbanLnClosureMultiLn2W+MountableMed.dgn
Wednesday, September 10, 2008 4:02 PM 89088 210-701701-06_UrbanLnClosureMultiLnIntersection.dgn
Thursday, September 11, 2008 8:57 AM 70656 210-701801-04_LnClosureMultiLn1W2W+CrosswalkOrSWClosure.dgn
Thursday, September 11, 2008 8:59 AM 228352 210-701901-01_TrafCntrlDevices.dgn
Friday, October 03, 2008 11:06 AM 221184 210-704001-05_TempConcBarrier.dgn
Thursday, September 11, 2008 9:00 AM 88576 210-720001-01_SignPanelMountDetails.dgn
Thursday, September 11, 2008 9:01 AM 153600 210-720006-02_SignPanelErectDetails.dgn
Thursday, September 11, 2008 9:01 AM 73728 210-720011-01_MetalPostsForSignsMrkrs&Delineators.dgn
Thursday, September 11, 2008 9:02 AM 73728 210-720016-02_MastArmMountedStNameSigns.dgn
Thursday, September 11, 2008 9:03 AM 179712 210-720021-02_SignPanels-ExtrudedAlumType.dgn
Thursday, September 11, 2008 9:03 AM 153600 210-728001-01_TelescopingSteelSignSupport.dgn
Thursday, September 11, 2008 9:04 AM 82432 210-729001-01_AppOfTypesA&BPosts.dgn
Thursday, September 11, 2008 9:04 AM 153600 210-731001-01_BaseForTelescopingSteelSignSupport.dgn
Thursday, September 11, 2008 9:05 AM 168448 210-780001-02_TypicalPvmtMrkings.dgn
Thursday, September 11, 2008 9:06 AM 98304 210-781001-03_TypicalAppRaisedReflcPvmtMrkrs.dgn
Thursday, September 11, 2008 9:31 AM 76800 210-805001-01_ElecSrvcInstallDetails.dgn
Thursday, September 11, 2008 9:31 AM 105472 210-814001-02_Handholes.dgn
Thursday, September 11, 2008 9:32 AM 176640 210-814006-02_DoubleHandholes.dgn
Thursday, September 11, 2008 9:33 AM 107520 210-857001-01_StdPhaseDesignationDiagrams&PhaseSeq.dgn
Thursday, September 11, 2008 9:33 AM 58368 210-857006-01_SupervisedRRInterconnectCircuit-.dgn
Thursday, September 11, 2008 9:35 AM 83968 210-862001-01_UPS.dgn
Thursday, September 11, 2008 9:35 AM 744448 210-873001-02_TrafSignalGround&Bond.dgn
Thursday, September 11, 2008 9:35 AM 169984 210-876001-01_PedestrianPushButtonPost.dgn
Thursday, September 11, 2008 9:36 AM 87552 210-877001-04_SteelMastArmAssembly&Pole16'thre55'.dgn
Thursday, September 11, 2008 9:36 AM 212992 210-877002-01_SteelMastArmAssembly&Pole56'thru75'.dgn
Thursday, September 11, 2008 9:37 AM 103424 210-877006-03_SteelMastArmAssembly&Pole+DualMastArms.dgn
Thursday, September 11, 2008 9:37 AM 103424 210-877011-04_SteelComboMastArmAssembly&Pole16'thru55'.dgn
Thursday, September 11, 2008 9:38 AM 139264 210-877012-01_SteelComboMastArmAssembly&Pole56'thru75'.dgn
Thursday, September 11, 2008 9:39 AM 169984 210-878001-07_ConcreteFoundationDetails.dgn
Thursday, September 11, 2008 9:39 AM 99840 210-880001-01_SpanWireMountSignals&FlashBeaconInstall.dgn
Thursday, September 11, 2008 9:40 AM 79360 210-880006-01_TrfSignalMountDetails-Post&BracketMount.dgn
Thursday, September 11, 2008 9:41 AM 151552 210-886001-01_DetectorLoopInstallations.dgn
Thursday, September 11, 2008 9:42 AM 70144 210-886006-01_TypicalLayoutsForDetectionLoops.dgn
Thursday, September 11, 2008 9:43 AM 216064 210-BLR10-6_PCCPvmtSpecial-NonReinf.dgn
Thursday, September 11, 2008 9:44 AM 197632 210-BLR14-10_PCCPvmt-NonReinf.dgn
Thursday, September 11, 2008 9:45 AM 288256 210-BLR17-4_TrafCntrlDevices-DayLaborConstr.dgn
Thursday, September 11, 2008 9:46 AM 89600 210-BLR18-5_TrafCntrlDevices-DayLaborMaint.dgn
Thursday, September 11, 2008 9:46 AM 244736 210-BLR20-6_TrafBarrierTermType5R.dgn
Thursday, September 11, 2008 9:47 AM 92160 210-BLR21-8_TypAppTrafCntrlDevices-ConstrOnRuralLocalHwys.dgn
Thursday, September 11, 2008 9:48 AM 92672 210-BLR22-6_TypAppTrafCntrlDevices-ConstrOnRuralLocalHwys(2L2W-RdClsdToThruTraf).dgn
Thursday, September 11, 2008 9:49 AM 236544 210-BLR23-3_TrafBarrierTermType1.dgn
Thursday, September 11, 2008 9:49 AM 124416 210-BLR24-2_MailboxTurn-LocalRds.dgn
Thursday, September 11, 2008 9:50 AM 61440 210-BLR25-1_Type1ABarrForNonNHSRts.dgn
Thursday, September 11, 2008 9:51 AM 356864 210-BLR26-1_SteelPlateBeemGR27.5inchHt.dgn
Thursday, September 11, 2008 9:54 AM 304640 210-BLR27-1_TrafBarTermType5A.dgn
Friday, January 30, 2009 8:18 AM <dir> _vti_cnf